www.pogodaiklimat.ru

Погода и климат >> Архив погоды >> Финляндия >> Остров Синго


ПОГОДА на Острове Синго

  • Прогноз погоды на Острове Синго
  • Монитор погоды на Острове Синго

АРХИВ ПОГОДЫ на Острове Синго

Время (UTC), дата Ветер
(напр.,м/с)
 
Видим.   Явления Облачность Т
(С)
Тd
(С)
f
(%)
Тe
(С)
Тes
(С)
Комфортность P
(гПа)
Po
(гПа)
Тmin
(С)
Tmax
(С)
R
(мм)
R24
(мм)
S
(см)
15 12.08 Ю 4 30 км 9/5
[]
+19.3 +13.3 68 +21 +21 комфорт 1009.5 999.6
18 12.08 Ю 3 30 км 3/3
[]
+16.6 +14.3 86 +16 +16 1009.1 999.1 +16.6 +21.7 0.9
21 12.08 Ю 2 20 км ясно +12.7 +12.7 100 +12 +12 1009.6 999.4
00 13.08 Ю 3 9000 м дымка 8/4 1500 м
[]
+12.2 +12.2 100 +10 +10 1009.0 998.9
03 13.08 Ю 2 7000 м дымка 5/5 50 м
[]
+12.8 +12.8 100 +12 +12 1008.1 998.0
06 13.08 Ю 3 19 км 10/10 100 м
[]
+15.9 +15.4 97 +15 +15 1008.0 998.0 +11.4 +16.6
09 13.08 Ю 4 40 км 1/1 600 м
[]
+20.3 +14.2 68 +23 +29 комфорт 1006.8 996.9
12 13.08 Ю 5 30 км 3/3 1000 м
[]
+22.6 +14.4 60 +26 +30 жарко 1005.7 996.0
15 13.08 Ю 4 40 км ясно +21.3 +13.4 61 +24 +26 комфорт 1005.2 995.4
18 13.08 ЮЗ 3 50 км ясно +17.1 +8.4 57 +17 +17 1006.0 996.0 +15.9 +22.9
21 13.08 ЮЗ 2 30 км ясно +11.2 +11.2 100 +10 +10 1006.9 996.8
00 14.08 Ю 2 16 км 3/0
[]
+9.9 +9.9 100 +8 +8 1007.0 996.7
03 14.08 Ю 2 5000 м слаб. ливневой дождь 10/10 300 м
[]
+11.3 +11.3 100 +10 +10 1006.1 996.0
06 14.08 Ю 2 27 км 9/9 200 м
[]
+15.2 +14.8 97 +15 +15 1005.8 995.8 +8.7 +17.1 0.5
09 14.08 ЮЗ 5 35 км 8/6 600 м
[]
+18.3 +13.0 71 +18 +20 1005.9 996.0
12 14.08 З 5 35 км слаб. дождь 9/9 1000 м
[]
+16.9 +10.6 66 +16 +17 1006.7 996.7
15 14.08 ЮЗ 5 45 км 3/3 1500 м
[]
+18.9 +9.0 53 +19 +20 1006.3 996.4
18 14.08 ЮЗ 3 45 км ясно +15.0 +9.3 69 +14 +14 1007.1 997.1 +13.4 +20.2 2
21 14.08 ЮЗ 2 45 км ясно +9.2 +8.5 95 +7 +7 1007.3 997.0
00 15.08 Ю 2 25 км ясно +6.4 +6.4 100 +4 +4 1006.9 996.6
03 15.08 ЮЗ 2 27 км 3/0
[]
+6.3 +6.3 100 +4 +4 1006.5 996.2
06 15.08 Ю 2 35 км 6/6 300 м
[]
+14.0 +11.5 85 +13 +15 1006.4 996.4 +5.9 +15.0
09 15.08 З 3 35 км 3/3 1000 м
[]
+17.5 +9.7 60 +18 +23 1006.3 996.4
12 15.08 З 4 35 км 9/9 1000 м
[]
+17.5 +8.6 56 +17 +18 1007.3 997.4
15 15.08 З 4 45 км 5/5 1500 м
[]
+19.2 +6.8 44 +20 +21 1008.3 998.3
18 15.08 З 2 50 км ясно +13.5 +7.6 67 +13 +13 1010.3 1000.1 +13.5 +20.1
21 15.08 ЮЗ 1 50 км ясно +6.8 +6.3 97 +6 +6 1012.5 1002.1
00 16.08 ЮЗ 1 50 км ясно +5.2 +5.2 100 +4 +4 1013.4 1002.9
03 16.08 Ю 1 40 км ясно +3.7 +3.7 100 +2 +2 1013.8 1003.3
06 16.08 ЮЗ 3 40 км ясно +15.0 +11.8 81 +14 +17 1014.0 1003.9 +3.5 +15.0
09 16.08 Ю 5 45 км 9/5 1000 м
[]
+19.2 +11.2 60 +20 +21 1014.0 1004.0
12 16.08 ЮЗ 4 35 км 8/8 1500 м
[]
+20.8 +10.4 51 +23 +24 комфорт 1014.1 1004.1
15 16.08 ЮЗ 3 40 км в посл. час дождь 9/9 2000 м
[]
+18.2 +13.6 75 +19 +19 1014.6 1004.6
18 16.08 ЮЗ 1 35 км 9/9 2000 м
[]
+15.2 +12.3 83 +16 +16 1015.1 1005.0 +15.0 +21.9 0.2
21 16.08 Ю 2 40 км 10/10
[]
+13.4 +12.4 94 +13 +13 1015.5 1005.3
00 17.08 ЮВ 2 35 км 10/10
[]
+13.8 +13.1 96 +13 +13 1015.4 1005.2
03 17.08 ЮВ 3 35 км 10/10
[]
+14.1 +13.2 94 +13 +13 1014.7 1004.5
06 17.08 Ю 4 45 км ясно +18.0 +13.5 75 +18 +20 1014.5 1004.5 +11.8 +18.0
09 17.08 Ю 6 35 км 3/3 600 м
[]
+21.5 +13.7 61 +24 +27 комфорт 1014.4 1004.5
12 17.08 Ю 5 35 км 1/1 1000 м
[]
+22.2 +12.3 53 +25 +29 комфорт 1014.3 1004.5
15 17.08 Ю 4 40 км 9/8 1000 м
[]
+21.6 +13.2 59 +24 +25 комфорт 1013.7 1003.8
18 17.08 Ю 2 50 км 9/9
[]
+18.4 +14.3 77 +19 +19 1013.9 1003.9 +18.0 +23.1
21 17.08 ЮВ 3 40 км 1/1 2000 м
[]
+15.0 +13.2 89 +14 +14 1013.9 1003.8
00 18.08 ЮВ 2 45 км 3/3
[]
+13.2 +12.2 94 +12 +12 1013.7 1003.6
03 18.08 ЮВ 2 35 км ясно +10.6 +10.6 100 +9 +9 1013.1 1002.8
06 18.08 ЮВ 4 50 км ясно +18.4 +12.7 69 +19 +21 1012.6 1002.6 +10.6 +18.4
09 18.08 ЮВ 7 40 км ясно +22.0 +10.1 47 +24 +26 комфорт 1012.0 1002.1
12 18.08 ЮВ 5 50 км 9/0
[]
+21.4 +7.2 40 +22 +25 комфорт 1011.7 1001.9
15 18.08 ЮВ 5 40 км 5/1
[]
+21.2 +8.6 44 +22 +23 комфорт 1010.9 1001.1
18 18.08 ЮВ 3 50 км 10/10 2000 м
[]
+18.5 +9.7 57 +19 +19 1010.7 1000.7 +18.4 +22.8
21 18.08 ЮВ 3 50 км 6/6 2000 м
[]
+17.2 +11.1 67 +17 +17 1009.7 999.7
00 19.08 ЮВ 3 18 км слаб. ливневой дождь 10/10 1500 м
[]
+16.2 +12.9 81 +16 +16 1008.5 998.5
03 19.08 ЮВ 3 17 км слаб. дождь 10/1 1500 м
[]
+14.9 +14.9 100 +14 +14 1007.0 996.9
06 19.08 Ю 4 23 км слаб. ливневой дождь 10/10 1000 м
[]
+15.9 +15.2 96 +15 +15 1005.8 995.8 +14.7 +18.5 2
09 19.08 Ю 5 16 км в посл. час морось 10/10 100 м
[]
+16.2 +16.2 100 +15 +15 1005.9 995.9

 

Местоположение метеостанции Остров Синго (Финляндия): широта 60.63 долгота 25.19 высота над уровнем моря 85 м.

В архиве по умолчанию представлена погода на Острове Синго за последнюю неделю. Архивные данные за месяц целиком и за предыдущие месяцы, начиная с января 2011 года, Вы можете получить, выбрав интересующий диапазон дат из раскрывающегося списка и нажав кнопку "Ввод!".


*Определитесь, кто Вы:
робот инопланетянин человек

Внимание! Время в таблицах - всемирное. Для получения местного времени необходимо прибавить поправку, которая равна 1 ч.

Смотрите также архив погоды в соседних городах и на ближайших метеорологических станциях:

Погода в Хювинкяа (Финляндия) (22 км)
Погода в Нурмиярви (Финляндия) (32 км)
Погода в Порвоо (Финляндия) (35 км)
Погода в Хельсинки (Финляндия) (36 км)
Погода в Килпилахти (Финляндия) (42 км)
Погода в Лахти (Финляндия) (44 км)
Погода в Ламми Паппила (Финляндия) (47 км)
Погода в Вихти (Финляндия) (49 км)
Погода в Хельсинки университете (Финляндия) (49 км)
Погода в Лаппеенранта Коннунсуо (Финляндия) (50 км)

Пояснения к столбцам:

Ветер - указаны скорость ветра в м/с - средняя за 10 мин, порывы в срок и между сроками (в фигурных скобках) и направление, откуда дует ветер: С - северный, СВ - северо-восточный, В - восточный, ЮВ - юго-восточный, Ю - южный, ЮЗ - юго-западный, З - западный, СЗ - северо-западный.
Видимость - горизонтальная дальность видимости в метрах или километрах. При видимости от 1 до 10 км при отсутствии осадков обычно наблюдается дымка, при ухудшении видимости до 1 км и менее - туман. В сухую погоду видимость может ухудшаться дымом, пылью или мглою.
Явления - указаны атмосферные явления, наблюдавшиеся в срок или в последний час перед сроком; фигурными скобками обозначены явления, наблюдавшиеся между сроками (за 1-3 часа до срока); квадратными скобками обозначены град или гололедные отложения с указанием их диаметра в мм.
Облачность - указаны через наклонную черту общая и нижняя облачность в баллах и высота нижней границы облаков в метрах; квадратными скобками обозначены формы облаков: Ci - перистые, Cs - перисто-слоистые, Cc - перисто-кучевые, Ac - высококучевые, As - высокослоистые, Sc - слоисто-кучевые, Ns - слоисто-дождевые, Cu - кучевые, Cb - кучево-дождевые. Подробнее классификацию облаков см. в Атласе облаков (PDF).
T - Температура воздуха - температура, измеренная на высоте 2 м над землей.
Td - Температура точки росы - температура, при понижении до которой содержащийся в воздухе водяной пар достигнет насыщения.
f - Относительная влажность воздуха - влажноcть воздуха, измеренная на высоте 2 м над землей.
Te - Эффективная температура - температура, которую ощущает одетый по сезону человек в тени. Характеристика душности погоды. При расчете учитывается влияние влажности воздуха и скорости ветра на теплоощущения человека.
Tes - Эффективная температура на солнце - температура, которую ощущает человек, с поправкой на солнечный нагрев. Характеристика знойности погоды. Зависит от высоты солнца над горизонтом, облачности и скорости ветра. Ночью, в пасмурную погоду, а также при ветре 12 м/с и более поправка равна нулю.
P - Атмосферное давление - приведенное к уровню моря атмосферное давление.
Po - Атмосферное давление - измеренное на уровне метеостанции атмосферное давление.
Tmin - Минимальная температура - минимум температуры воздуха на высоте 2 м над землей.
Tmax - Максимальная температура - максимум температуры воздуха на высоте 2 м над землей.
R - Количество осадков - Количество выпавших осадков за период времени, мм. При наведении курсора мыши на число - период времени, за который выпало указанное количество осадков.
R24 - Количество осадков - Количество выпавших осадков за 24 часа, мм.
S - Снежный покров - Высота снежного покрова, см. При наведении курсора мыши на число - состояние снежного покрова и степень покрытия местности в баллах.